Dewpoint
29 31 31 31 32 30 31 33 33 33 36 37 33 35 34 34 29 26 33 37 34 31 31 32 36 38 39 37 40 41 41 40 40 41 39 39 39 41 40 42 44 48 48 49 51 50 51 51 50 50 46 43 48 48 47 47 53 54 54 54 52 51 51 51 53 55 54 52 53 51 54 51 53 51 53 54 54 52 52 52 53 51 50 51 51 51 50
34 35 30 29 27 30 33 34 36 36 35 36 37 38 37 35 34 36 37 34 33 33 37 36 37 40 39 39 40 41 37 40 40 38 39 38 39 40 41 43 44 47 51 50 51 52 52 49 48 48 48 47 48 50 48 49 52 53 54 54 52 50 49 50 52 48 49 52 49 52 49 51 52 54 52 54 55 53 51 51 51 51 51 51 51 51 50
30 30 30 30 30 32 33 35 34 32 39 42 44 42 42 40 34 33 32 33 32 32 40 37 38 42 40 39 37 37 38 38 39 37 37 39 39 39 42 43 43 44 47 47 47 47 48 48 50 51 54 53 53 50 49 49 48 51 48 51 51 50 48 48 49 47 47 50 49 48 48 50 53 49 52 56 53 51 52 51 52 51 51 49 50 52 51
28 32 33 33 32 34 34 36 36 40 34 30 37 34 39 32 31 34 34 31 29 30 34 34 36 36 35 35 37 40 41 40 40 39 40 40 40 41 41 42 42 42 43 44 46 47 47 48 48 47 49 51 50 50 47 46 44 48 53 52 51 50 48 50 48 45 48 45 47 48 50 48 50 52 51 51 49 49 51 51 51 52 51 49 49 51 53
26 33 32 31 30 30 30 31 38 41 38 32 32 34 36 40 40 30 29 28 28 33 34 34 35 35 35 35 36 38 40 41 40 40 42 42 42 42 43 43 44 43 43 46 51 50 48 46 44 42 44 48 48 47 48 52 48 52 52 53 49 49 48 46 44 54 46 46 42 44 47 50 54 51 51 48 50 49 50 51 51 50 49 50 50 50 52
24 26 31 30 28 24 23 37 38 39 37 35 33 33 37 38 40 37 37 34 36 36 36 35 35 35 35 37 39 43 41 40 42 42 43 42 43 43 43 44 44 46 47 48 49 50 50 47 46 48 47 46 50 51 45 43 48 46 45 46 49 46 46 45 45 46 44 44 44 46 49 51 48 48 47 48 51 52 51 50 50 49 49 50 50 50 51
24 25 28 24 24 24 37 37 37 36 35 34 35 36 38 39 40 39 37 38 39 39 37 37 37 37 38 38 37 41 41 42 42 43 42 43 43 44 45 46 46 47 48 48 50 49 50 47 48 49 44 45 49 47 45 43 44 45 44 43 47 47 47 46 50 46 43 43 44 45 47 47 50 47 49 51 49 50 51 50 49 49 49 49 50 50 51
26 23 19 19 16 35 39 37 36 35 29 29 33 34 35 36 33 37 33 34 36 37 36 35 35 36 36 37 37 41 40 44 44 42 43 43 45 45 45 47 49 50 50 52 52 51 49 52 48 44 47 48 47 46 45 43 46 44 41 41 40 45 45 46 43 43 43 44 49 43 44 50 49 49 50 50 50 52 52 51 50 50 50 49 49 50 51
24 23 21 21 28 28 37 37 34 25 27 31 33 31 33 37 34 35 36 35 34 34 33 33 34 37 36 34 36 43 42 44 42 43 44 44 45 46 48 47 48 50 52 53 53 51 54 54 54 53 48 49 49 47 45 46 42 40 42 40 37 45 43 41 44 43 43 46 43 50 47 45 43 47 48 50 49 50 49 49 49 50 50 49 49 49 50
27 23 22 22 21 20 26 37 36 32 37 32 33 30 28 36 31 32 34 35 33 33 32 34 36 40 33 37 38 42 43 42 44 41 43 43 46 47 47 47 50 52 53 52 53 55 53 54 55 55 52 50 48 48 46 46 43 43 41 40 39 39 40 40 44 44 43 41 44 45 49 43 47 51 51 52 48 50 49 49 50 50 50 48 48 50 51
28 26 23 20 19 21 36 37 34 36 34 34 33 31 26 33 36 33 33 34 33 32 33 34 36 34 30 36 39 42 43 42 43 41 40 40 43 46 50 52 49 52 53 53 53 53 53 52 54 53 55 54 51 48 47 49 44 44 45 41 41 39 40 39 41 43 46 45 46 50 44 47 50 49 50 51 52 50 50 50 50 49 47 47 48 51 54
29 29 26 24 24 22 31 38 36 33 35 37 32 25 24 37 36 35 35 36 36 35 35 36 36 33 31 32 39 46 45 45 43 43 41 42 45 42 44 50 50 49 51 53 52 52 52 52 53 51 52 49 50 49 49 50 48 46 47 47 41 44 43 47 47 47 52 51 51 50 42 48 51 51 50 50 49 48 51 47 44 45 48 47 49 51 53
25 27 25 24 25 31 37 38 38 35 41 36 25 24 32 40 39 38 38 37 36 35 36 37 32 36 39 42 47 48 46 41 41 42 43 41 45 44 47 50 48 52 55 54 51 52 51 52 51 52 51 51 51 49 49 49 48 49 48 47 44 43 46 46 43 43 44 48 51 50 51 51 47 49 51 47 48 51 50 48 46 47 48 48 49 51 52
25 25 23 24 25 34 39 38 39 36 30 19 18 36 44 41 39 38 39 38 38 38 38 38 37 38 43 43 47 47 44 45 46 40 43 43 43 50 46 49 49 53 53 52 52 52 53 51 53 51 51 51 49 49 49 49 50 50 48 44 47 42 42 40 42 47 51 51 51 49 52 52 51 48 47 47 47 46 47 49 45 42 44 49 51 50 51
27 26 23 21 21 36 43 42 37 37 23 22 34 37 40 37 38 36 37 38 40 40 39 40 43 43 42 42 42 42 43 44 44 44 44 47 46 49 51 53 53 50 49 49 50 53 52 52 50 51 52 51 49 51 50 50 51 49 48 48 43 43 43 43 49 49 52 52 51 49 50 50 48 47 48 48 48 48 47 45 44 43 43 45 47 50 51
23 23 21 20 23 38 45 41 35 37 31 31 39 38 32 33 36 39 39 40 41 43 42 42 42 44 42 42 44 42 41 43 46 45 47 48 48 46 47 49 51 53 51 47 49 51 50 50 49 49 52 50 50 49 50 51 51 52 50 47 45 46 49 46 49 51 49 51 51 51 50 49 48 46 47 47 46 45 44 43 43 41 41 45 49 49 48
27 23 26 39 42 43 43 43 38 36 42 43 42 43 40 37 33 39 32 37 43 44 42 43 43 41 44 42 42 44 46 47 46 45 45 47 47 47 49 48 48 45 43 48 47 47 48 50 50 48 49 50 50 50 51 51 48 47 49 48 48 48 48 48 49 47 48 48 48 48 48 48 47 48 47 46 45 44 42 43 43 42 46 45 48 47 46
35 34 35 35 34 42 42 39 38 36 39 35 41 38 35 38 41 41 37 42 40 41 44 42 42 42 44 45 45 44 45 43 44 47 43 43 49 47 46 47 49 45 47 47 48 47 46 50 50 51 50 50 51 52 51 50 48 47 48 48 48 47 47 49 50 48 47 48 48 49 49 48 49 48 47 45 43 41 42 42 42 45 48 44 44 44 44
28 23 29 28 31 35 38 39 38 40 40 39 39 40 38 38 40 40 43 41 43 44 44 44 44 45 45 44 45 43 42 44 44 44 45 49 49 49 48 50 49 47 48 47 47 48 49 50 49 48 51 50 51 52 50 49 48 48 47 49 49 48 48 47 49 48 48 46 46 47 48 47 45 43 41 42 42 42 41 43 49 49 45 45 43 42 44
26 25 26 29 32 36 35 30 30 31 33 37 40 41 42 41 45 45 44 46 43 44 41 44 45 45 45 44 44 43 43 44 44 43 43 43 47 49 50 50 49 48 48 47 48 48 48 49 49 48 48 48 50 51 50 50 49 48 49 50 49 48 48 47 46 47 46 43 45 46 47 46 43 42 40 40 43 50 49 46 47 50 50 46 44 43 45
29 31 29 26 28 27 26 27 32 33 32 34 37 37 41 41 39 40 40 45 42 43 42 45 46 45 45 45 44 43 44 44 45 46 44 45 47 49 49 51 50 47 46 46 48 48 48 49 50 49 49 49 49 52 52 51 52 49 50 49 49 49 48 46 47 46 46 46 44 42 43 43 44 43 42 46 49 47 49 49 47 45 43 47 44 46 46
27 26 28 33 26 24 23 28 34 36 38 39 41 41 37 35 35 37 36 38 43 44 45 44 43 43 43 44 45 44 43 45 46 47 46 47 47 47 49 48 48 49 49 49 50 48 47 49 49 48 50 49 49 47 47 48 52 53 51 50 50 48 47 46 46 46 46 45 44 43 42 40 39 44 36 38 48 48 49 36 33 35 39 47 45 47 49
25 28 28 40 39 36 34 37 38 41 37 38 38 38 40 39 39 35 37 36 38 39 41 42 41 42 43 44 44 45 44 44 46 47 49 47 48 47 49 47 45 46 48 49 49 48 48 49 48 47 49 48 49 48 48 49 50 51 50 49 47 47 46 45 44 47 45 45 44 43 43 43 42 42 39 42 33 33 38 36 35 33 35 35 34 34 43
37 35 34 37 35 29 33 31 37 33 38 36 36 33 34 35 35 35 37 36 37 38 37 39 40 40 43 44 44 45 45 46 47 49 49 50 49 48 46 46 46 46 48 49 49 49 49 48 47 48 48 48 48 47 47 48 49 52 51 50 48 47 46 46 46 45 44 45 46 46 44 42 41 38 39 38 40 34 33 35 34 34 34 35 35 35 34
34 35 35 36 38 33 29 29 28 34 36 37 34 33 35 32 32 36 34 35 35 34 35 36 37 40 40 42 45 46 46 48 48 48 46 44 46 46 46 46 45 46 46 49 48 49 48 49 48 49 48 48 48 46 47 48 47 49 50 50 50 50 48 48 46 44 46 53 51 50 46 43 43 40 36 38 38 38 38 32 33 34 34 36 35 35 36
38 36 35 35 35 35 34 28 27 31 31 32 36 36 38 43 40 36 32 32 35 37 36 37 39 42 43 42 41 44 46 47 50 46 45 45 44 44 44 45 47 48 47 47 49 49 49 50 49 48 47 47 47 49 48 48 50 55 54 52 52 50 48 48 48 49 50 48 46 46 45 43 41 40 37 40 36 39 37 37 38 39 34 33 35 35 35
33 34 35 37 35 33 30 29 28 32 35 35 37 34 33 34 45 41 36 35 34 33 34 36 39 42 44 44 43 45 46 46 45 45 44 44 43 44 46 48 47 48 48 48 48 48 49 48 47 47 48 49 49 50 48 48 52 54 54 54 53 46 40 43 48 48 46 45 45 45 45 44 48 40 41 41 40 39 37 37 35 35 36 37 35 35 35
30 30 33 35 33 32 33 30 30 32 32 30 33 25 22 26 26 30 35 36 35 37 38 38 39 41 42 44 45 43 47 46 45 44 45 45 46 46 47 50 50 47 47 48 47 47 47 45 46 47 47 49 48 48 46 47 54 55 54 54 52 50 53 50 49 48 46 46 45 45 45 45 44 42 42 38 36 35 34 35 36 34 32 37 36 35 35
29 28 27 25 26 27 29 28 30 28 31 34 33 26 23 27 29 30 31 35 37 35 36 38 40 41 40 40 42 41 42 44 45 44 45 45 45 46 48 50 50 49 48 47 46 45 45 45 45 45 46 48 45 46 46 47 55 54 53 53 50 49 50 53 48 48 47 46 47 46 42 47 51 47 45 39 39 35 40 37 36 32 34 38 39 37 36
26 25 25 25 24 25 27 27 28 29 29 28 27 27 23 22 24 29 30 31 32 33 33 36 37 38 39 41 41 42 43 44 45 44 43 44 44 48 46 45 46 46 48 46 45 45 43 43 43 42 45 49 44 44 45 51 51 49 52 53 51 50 50 53 50 49 48 47 45 40 48 45 45 44 43 38 37 36 37 34 31 33 32 37 39 36 35
28 29 27 28 27 28 26 27 29 28 28 25 27 28 28 26 24 29 30 32 31 33 35 34 37 38 38 40 42 44 46 46 45 46 46 46 48 49 48 46 44 43 44 45 46 46 44 45 45 45 47 45 45 45 49 50 48 48 49 51 50 45 43 43 43 51 49 46 45 45 49 48 46 46 44 41 39 37 36 34 32 30 29 35 39 38 37
30 29 28 31 29 30 30 30 29 29 30 29 27 28 30 30 29 30 32 32 35 37 39 39 38 39 40 41 45 47 45 46 45 46 45 46 46 48 47 46 46 44 46 46 48 48 47 46 45 47 46 46 47 46 49 49 47 46 46 43 47 47 46 39 46 46 46 45 44 46 45 46 44 43 40 38 37 37 36 35 35 30 27 27 39 38 37
31 31 31 31 31 31 30 29 29 29 29 29 31 32 31 33 31 32 32 34 34 37 39 39 40 40 44 46 46 45 44 44 44 44 44 43 44 46 47 48 47 46 47 48 49 48 48 47 46 48 45 45 47 47 47 48 48 45 44 44 44 46 44 42 44 47 46 48 48 47 45 44 44 43 42 42 42 37 36 37 35 32 29 28 28 38 38
35 34 35 35 35 32 33 33 33 33 33 33 32 32 32 32 34 33 32 34 34 35 37 41 42 43 43 45 44 43 45 44 42 41 44 43 44 45 46 48 47 47 48 48 47 45 47 46 47 49 47 46 47 48 47 45 45 44 46 46 46 46 46 47 46 44 47 46 47 43 45 45 44 43 42 43 40 38 36 37 35 33 30 28 26 26 35
35 35 34 33 34 33 33 32 33 33 33 32 32 31 30 34 34 34 38 36 37 39 39 39 37 38 41 45 45 44 43 43 44 44 45 45 44 45 46 47 45 45 45 45 45 44 48 47 45 44 48 48 49 49 49 48 48 47 48 48 48 47 46 47 48 47 46 47 46 46 45 45 45 43 47 45 44 41 43 36 36 35 33 30 27 24 32
33 32 32 32 32 32 33 34 34 35 35 33 33 33 33 33 32 32 37 38 35 33 35 36 37 38 41 42 42 42 42 43 45 45 45 44 44 46 45 43 43 43 44 44 46 47 48 49 43 43 51 53 50 49 47 49 48 48 49 48 46 45 46 46 45 47 46 47 46 46 45 43 45 45 43 44 43 43 41 40 38 36 34 32 29 25 34
32 32 31 32 32 34 36 35 35 35 35 35 35 36 37 36 33 35 36 32 33 38 37 37 40 40 42 43 42 43 43 43 44 44 44 44 46 45 45 44 43 43 43 42 44 46 45 55 39 39 46 46 47 48 64 42 51 48 47 48 48 46 46 44 46 46 51 46 46 46 43 43 45 45 43 44 43 42 40 39 37 36 36 33 31 30 31
32 31 33 34 33 35 36 35 35 35 35 35 35 36 38 37 35 35 33 34 35 36 40 40 40 40 42 43 41 41 42 43 43 43 42 43 46 44 42 43 41 40 39 41 46 49 50 48 35 43 48 48 47 45 53 40 44 53 49 47 45 44 43 44 44 44 45 47 46 46 45 44 45 45 45 46 45 44 45 42 39 41 40 38 35 31 30
32 33 33 34 35 35 36 34 34 35 34 34 36 34 35 40 41 37 35 34 34 35 38 38 39 40 41 41 41 42 43 43 44 42 43 42 43 44 42 42 41 42 45 46 48 43 55 45 48 49 48 46 48 47 45 35 41 51 47 45 45 43 43 45 45 44 44 47 47 48 46 45 44 45 45 46 45 43 41 40 41 41 45 45 41 35 30
33 33 33 33 33 34 34 33 34 35 34 35 35 36 36 37 36 35 34 35 36 37 39 39 41 41 41 41 40 41 42 44 44 42 42 43 42 43 43 42 43 46 44 39 42 43 48 41 47 49 46 47 46 47 49 47 45 47 46 43 43 42 42 42 44 44 45 47 52 45 50 48 46 46 44 44 45 44 43 41 40 41 41 41 40 37 32
34 33 33 32 32 31 32 34 33 34 32 34 34 36 36 37 36 38 39 39 37 39 39 40 40 40 38 39 41 43 43 43 44 43 42 43 41 40 38 37 43 46 45 47 46 49 46 47 50 46 43 43 47 46 50 42 46 46 44 43 42 42 43 44 43 44 44 47 53 53 52 52 50 47 44 43 43 43 45 46 45 43 40 39 39 37 33
34 33 33 33 33 33 33 33 32 32 34 37 37 39 40 41 40 40 40 39 40 41 39 39 36 39 39 40 42 42 41 41 42 43 43 42 41 38 36 37 49 41 51 41 44 47 48 48 48 43 45 50 47 36 39 44 48 45 44 43 43 42 43 43 43 44 47 49 51 50 48 48 49 50 47 46 46 48 48 50 51 48 48 45 46 41 37
33 34 33 33 33 33 32 31 31 31 32 31 33 36 37 39 40 39 38 39 38 38 37 37 43 42 43 41 41 41 42 43 41 41 42 41 42 41 40 41 44 55 38 49 50 44 43 41 45 51 43 51 47 34 32 50 46 45 45 43 42 42 42 43 43 47 50 50 50 50 51 51 48 47 48 48 47 49 49 48 47 47 46 45 43 41 38
33 31 31 31 31 32 31 31 31 32 32 32 31 34 37 38 39 38 38 39 38 38 37 37 37 38 40 41 41 40 40 40 40 38 37 38 39 43 44 48 46 45 41 47 43 41 41 43 51 42 33 34 34 34 46 47 46 46 45 44 43 42 42 44 45 53 53 51 52 51 52 49 47 47 47 46 45 45 44 45 48 47 49 47 45 42 38
32 30 33 33 33 33 30 30 31 31 31 31 31 32 34 33 35 36 35 36 38 36 37 38 38 39 40 42 42 42 41 40 39 40 37 36 36 39 51 42 46 46 43 42 44 42 41 49 45 35 38 34 36 35 50 48 47 46 46 45 44 43 43 45 46 51 51 51 50 51 51 51 51 48 47 47 44 44 44 44 43 46 50 46 45 44 43
35 34 35 33 35 34 33 34 34 34 34 34 34 34 34 33 31 34 34 35 38 39 37 38 39 40 39 40 40 41 41 41 41 42 42 39 38 40 47 39 43 43 40 40 43 48 49 33 33 34 33 34 35 42 48 47 46 46 46 45 45 42 43 44 45 47 52 52 53 52 51 53 51 48 47 46 47 46 46 44 45 46 48 51 48 47 49
34 35 35 35 35 36 36 35 35 36 36 35 34 35 35 34 37 34 34 35 37 39 38 39 39 40 40 39 39 39 38 39 39 41 40 42 42 41 47 41 39 37 41 48 44 46 43 51 37 33 34 34 33 46 48 47 47 46 46 45 44 44 44 46 47 46 47 51 50 47 46 48 49 48 47 47 47 46 46 46 47 46 47 49 51 51 49
34 34 34 35 34 36 37 36 35 33 35 35 36 36 36 36 35 34 33 35 38 40 41 40 40 41 40 40 39 39 39 38 37 40 41 41 41 39 45 45 44 42 43 41 40 40 38 37 38 37 34 34 39 46 48 47 46 46 46 46 46 46 47 47 48 46 47 48 47 47 47 48 49 49 49 49 48 48 48 48 48 48 49 50 49 50 48
34 35 35 36 36 36 34 34 35 34 34 35 34 34 33 34 35 36 35 37 37 40 40 40 41 40 40 39 40 48 43 40 40 39 42 40 39 38 38 41 37 38 44 43 44 43 41 37 36 36 35 34 44 46 47 46 45 45 44 45 45 48 49 50 45 47 47 46 47 45 46 47 48 48 49 49 48 49 47 48 49 49 48 47 47 46 45
34 35 35 36 34 32 32 32 32 33 34 34 34 34 36 38 35 34 35 41 44 45 51 44 43 47 48 41 38 39 40 42 41 40 38 39 40 40 38 38 43 42 41 45 44 43 38 37 35 35 38 43 45 47 47 48 49 46 45 45 45 48 52 48 42 42 45 46 46 48 46 46 47 48 48 48 49 49 49 49 49 43 41 43 45 44 42
35 36 36 34 34 34 36 38 39 39 37 36 38 37 44 45 46 45 46 47 48 48 49 48 48 52 53 53 52 47 49 42 37 37 37 37 39 37 38 39 40 40 44 43 43 42 42 43 44 42 41 44 46 47 47 46 46 46 44 45 46 46 47 48 44 44 44 46 47 45 47 47 48 48 48 48 47 48 47 45 46 46 46 45 42 41 40
34 35 34 33 34 35 37 37 38 38 39 40 44 45 44 45 45 49 47 44 46 47 50 49 49 51 50 50 50 51 54 52 40 41 38 42 38 40 40 39 43 41 44 43 43 45 44 43 40 39 43 46 47 48 44 42 45 46 46 46 44 47 46 46 44 44 45 46 45 46 44 45 45 45 44 44 43 42 41 41 41 40 39 39 39 38 38